[[{"header":{"parameterUnit":"m.s-1","parameterCategory":1,"la1":30.2991,"la2":30.254,"lo1":-89.0895,"lo2":-89.0444,"dx":0.0017,"dy":0.0017,"nx":28,"ny":28,"refTime":"2022-11-03T15:00:00:Z","depth":0,"parameterNumber":2,"parameterNumberName":"U-component_of_WINDS"},"data":[0,0,0,0,0,0,0,0,0,0,0,0,0,0,0,0,0,0,0,0,0,0,0,0,0,0,0,0,0,0,0,0,0,0,0,0,0,0,0,0,0,0,0,0,0,0,0,0,0,0,0,0,0,0,0,0,0,0,-5.2214,-5.2216,0,-5.2327,-5.2328,-5.2329,-5.231,-5.2308,-5.2306,-5.2304,-5.242,-5.2425,-5.243,0,0,0,0,0,0,0,0,0,0,0,0,0,-5.1987,-5.1991,-5.2214,-5.2216,-5.2217,-5.2326,-5.2328,-5.233,-5.231,-5.2308,-5.2305,-5.2303,-5.2419,-5.2424,-5.243,0,0,0,0,0,0,0,0,0,0,0,0,0,-5.2091,-5.1992,-5.2214,-5.222,-5.2222,-5.2326,-5.2328,-5.233,-5.2311,-5.2308,-5.2305,-5.2302,-5.2417,-5.2424,-5.2431,-5.2536,0,0,-5.2454,-5.2457,0,0,0,0,0,0,0,0,-5.2085,-5.2099,-5.2218,-5.222,-5.2222,-5.2301,-5.229,-5.2399,-5.2311,-5.2277,-5.2304,-5.23,-5.2383,-5.2393,-5.2421,-5.2541,-5.2546,-5.2454,-5.2459,-5.2462,-5.2464,0,0,0,0,0,0,0,-5.2078,-5.2094,-5.2259,-5.222,-5.2223,-5.2219,-5.2231,-5.2311,-5.2345,-5.228,-5.2279,-5.2292,-5.2384,-5.2414,-5.2423,-5.2548,-5.2454,-5.2461,-5.2465,-5.2468,-5.2765,-5.2768,0,0,0,0,0,0,-5.2068,-5.2089,-5.2255,-5.2262,-5.2145,-5.2226,-5.2239,-5.2279,-5.2344,-5.2351,-5.2295,-5.2291,-5.2402,-5.2415,-5.2427,-5.2556,-5.2462,-5.2469,-5.2473,-5.2762,-5.2766,-5.277,0,0,0,0,0,0,-5.2064,-5.2083,-5.2251,-5.2175,-5.2196,-5.2233,-5.2278,-5.2283,-5.2312,-5.2356,-5.2362,-5.2318,-5.24,-5.2417,-5.251,-5.256,-5.2472,-5.2479,-5.2758,-5.2763,-5.2768,-5.2814,0,0,0,0,0,0,-5.2057,-5.2082,-5.212,-5.2176,-5.22,-5.233,-5.2281,-5.2287,-5.2325,-5.2321,-5.238,-5.2386,-5.2399,-5.2499,-5.2517,-5.2568,-5.2485,-5.2753,-5.276,-5.2766,-5.2808,-5.282,-5.283,0,0,0,0,0,-5.2049,-5.2128,-5.2123,-5.2143,-5.2249,-5.2333,-5.2347,-5.236,-5.2329,-5.2369,-5.2398,-5.2385,-5.2552,-5.2509,-5.2529,-5.2583,-5.275,-5.2758,-5.2766,-5.2803,-5.2817,-5.283,0,0,0,0,0,0,-5.2076,-5.2135,-5.213,-5.2229,-5.2276,-5.2329,-5.238,-5.2374,-5.2431,-5.2425,-5.2439,-5.2453,-5.2548,-5.2575,-5.2526,-5.2691,-5.2647,-5.2659,-5.2668,-5.2683,-5.2693,-5.2684,-5.2491,0,0,0,0,0,-5.2094,-5.2156,-5.2205,-5.2288,-5.2312,-5.2343,-5.2379,-5.2386,-5.2435,-5.2455,-5.249,-5.2539,-5.2603,-5.2645,-5.2706,-5.2813,-5.2826,-5.2861,-5.2872,-5.2881,-5.289,-5.2952,-5.2968,-5.2795,-5.2795,-5.2795,0,0,-5.2131,-5.2171,-5.2209,-5.2295,-5.2332,-5.2398,-5.2359,-5.2429,-5.2478,-5.2465,-5.2555,-5.2584,-5.264,-5.2742,-5.2788,-5.2767,-5.2942,-5.2891,-5.2897,-5.2902,-5.2962,-5.2978,-5.2993,-5.28,-5.2799,-5.2799,0,0,-5.2232,-5.2268,-5.2342,-5.2381,-5.2439,-5.2459,-5.2478,-5.2533,-5.2551,-5.2642,-5.2635,-5.2695,-5.2804,-5.2846,-5.2881,-5.3003,-5.2994,-5.3023,-5.308,-5.314,-5.3154,-5.3166,-5.321,-5.3226,-5.3033,-5.3033,-5.3034,0,-5.227,-5.2367,-5.2381,-5.2453,-5.2492,-5.2486,-5.2563,-5.26,-5.2675,-5.2702,-5.2679,-5.2818,-5.2856,-5.2968,-5.2998,-5.3027,-5.3049,-5.3015,-5.3151,-5.3163,-5.3174,-5.3217,-5.3234,-5.3037,-5.3036,-5.3036,-5.3036,0,-5.2412,-5.248,-5.2534,-5.2607,-5.2653,-5.2727,-5.2754,-5.2799,-5.2803,-5.2827,-5.2922,-5.2967,-5.3039,-5.3066,-5.307,-5.3181,-5.3166,-5.3147,-5.3103,-5.3194,-5.3234,-5.3251,-5.3041,-5.304,-5.3039,-5.3038,0,0,-5.2528,-5.2612,-5.2632,-5.2666,-5.2732,-5.2785,-5.2861,-5.2932,-5.2971,-5.3024,-5.3089,-5.3184,-5.3168,-5.3208,-5.3218,-5.327,-5.3367,-5.3245,-5.3246,-5.3266,-5.3493,-5.3506,-5.3525,-5.3362,-5.3365,-5.3368,-5.3489,0,-5.2635,-5.2767,-5.2785,-5.2902,-5.2967,-5.2965,-5.3031,-5.308,-5.3106,-5.3165,-5.3194,-5.3262,-5.3234,-5.3259,-5.3312,-5.3344,-5.3412,-5.3336,-5.3423,-5.3426,-5.3407,-5.3546,-5.3559,-5.367,-5.3504,-5.3507,-5.3509,0,-5.2775,-5.2834,-5.2958,-5.3019,-5.3047,-5.3106,-5.3174,-5.3231,-5.3288,-5.3303,-5.3351,-5.3355,-5.3436,-5.3391,-5.3504,-5.3451,-5.3489,-5.3511,-5.3516,-5.3523,-5.3471,-5.3556,-5.3706,-5.3723,-5.3534,-5.3532,-5.353,0,-5.2848,-5.2959,-5.3048,-5.3078,-5.315,-5.3192,-5.3225,-5.3279,-5.3321,-5.3382,-5.341,-5.348,-5.3517,-5.3572,-5.3596,-5.3561,-5.3708,-5.3665,-5.3724,-5.3724,-5.3753,-5.375,-5.391,-5.378,-5.3779,-5.3779,-5.3779,0,-5.2964,-5.304,-5.3082,-5.3137,-5.3223,-5.3245,-5.3331,-5.3362,-5.3411,-5.3473,-5.3477,-5.3536,-5.3564,-5.3628,-5.3648,-5.374,-5.3757,-5.3773,-5.3777,-5.3771,-5.3769,-5.3795,-5.3787,-5.3783,-5.3782,-5.3782,-5.3781,0,-5.3058,-5.3089,-5.3186,-5.3249,-5.3267,-5.3328,-5.3382,-5.3436,-5.3464,-5.3543,-5.3563,-5.3606,-5.3682,-5.3713,-5.3805,-5.3819,-5.3924,-5.3923,-5.3905,-5.3906,-5.3963,-5.3957,-5.4143,-5.4169,-5.4023,-5.4024,-5.4025,0,-5.3129,-5.3188,-5.3258,-5.33,-5.3334,-5.3402,-5.3446,-5.3472,-5.3518,-5.359,-5.3637,-5.3713,-5.3775,-5.3897,-5.3937,-5.401,-5.4009,-5.407,-5.402,-5.4014,-5.401,-5.4006,-5.4013,-5.4078,-5.408,-5.4081,-5.4082,0,-5.3252,-5.3266,-5.3329,-5.34,-5.3453,-5.351,-5.3565,-5.36,-5.3634,-5.3687,-5.3765,-5.3813,-5.391,-5.3986,-5.4061,-5.4097,-5.4096,-5.4098,-5.4116,-5.411,-5.4097,-5.4105,-5.3929,-5.4093,-5.4092,-5.4091,-5.409,-5.409,-5.3337,-5.339,-5.3449,-5.352,-5.3566,-5.3618,-5.3673,-5.3709,-5.3774,-5.3854,-5.3867,-5.3951,-5.4011,-5.4112,-5.4151,-5.4219,-5.4203,-5.4228,-5.4234,-5.424,-5.4244,-5.4088,-5.4233,-5.4232,-5.4232,-5.4232,-5.4232,0,-5.346,-5.3499,-5.3565,-5.3643,-5.3701,-5.3697,-5.3759,-5.3807,-5.3881,-5.3937,-5.3999,-5.4091,-5.4167,-5.4215,-5.4291,-5.4337,-5.4338,-5.4356,-5.4352,-5.436,-5.4253,-5.423,-5.4353,-5.4353,-5.4353,-5.4353,-5.4353,-5.4353,-5.353,-5.3621,-5.3643,-5.3757,-5.3796,-5.3878,-5.3915,-5.3964,-5.4009,-5.4112,-5.4175,-5.4206,-5.426,-5.4342,-5.4412,-5.4424,-5.4452,-5.447,-5.4482,-5.438,-5.4367,-5.4355,-5.4334,-5.4477,-5.4477,-5.4583,-5.4584,-5.4585]},{"header":{"parameterUnit":"m.s-1","parameterCategory":1,"la1":30.2991,"la2":30.254,"lo1":-89.0895,"lo2":-89.0444,"dx":0.0017,"dy":0.0017,"nx":28,"ny":28,"refTime":"2022-11-03T15:00:00:Z","depth":0,"parameterNumber":3,"parameterNumberName":"V-component_of_WINDS"},"data":[0,0,0,0,0,0,0,0,0,0,0,0,0,0,0,0,0,0,0,0,0,0,0,0,0,0,0,0,0,0,0,0,0,0,0,0,0,0,0,0,0,0,0,0,0,0,0,0,0,0,0,0,0,0,0,0,0,0,1.6101,1.61,0,1.5921,1.5919,1.5917,1.5835,1.5836,1.5836,1.5836,1.5645,1.564,1.5635,0,0,0,0,0,0,0,0,0,0,0,0,0,1.6372,1.6368,1.6102,1.6099,1.6097,1.5921,1.5919,1.5916,1.5835,1.5836,1.5836,1.5836,1.5647,1.564,1.5634,0,0,0,0,0,0,0,0,0,0,0,0,0,1.623,1.6366,1.6102,1.6036,1.6028,1.5922,1.5919,1.5916,1.5835,1.5836,1.5836,1.5836,1.5649,1.5641,1.5633,1.5577,0,0,1.5609,1.5606,0,0,0,0,0,0,0,0,1.6238,1.622,1.6048,1.604,1.6031,1.5901,1.5944,1.5802,1.5835,1.5908,1.5836,1.5836,1.573,1.5715,1.568,1.5568,1.556,1.5608,1.5603,1.56,1.5598,0,0,0,0,0,0,0,1.6248,1.6227,1.603,1.6045,1.6035,1.6014,1.5994,1.5917,1.5819,1.5902,1.5896,1.5876,1.5725,1.5688,1.5675,1.5557,1.5609,1.5601,1.5597,1.5593,1.5394,1.5393,0,0,0,0,0,0,1.6269,1.6236,1.6036,1.6024,1.6138,1.6009,1.5986,1.5942,1.582,1.5801,1.5876,1.5873,1.5701,1.5684,1.5668,1.5596,1.56,1.5593,1.5588,1.5394,1.5393,1.5393,0,0,0,0,0,0,1.6275,1.6252,1.6043,1.6128,1.61,1.6004,1.5955,1.5939,1.5902,1.58,1.5782,1.5856,1.5701,1.5679,1.5602,1.5588,1.5589,1.5582,1.5395,1.5394,1.5393,1.5451,0,0,0,0,0,0,1.6283,1.6255,1.6233,1.6129,1.6096,1.5981,1.5954,1.5935,1.5889,1.5883,1.5777,1.5759,1.57,1.5614,1.5594,1.5577,1.5576,1.5395,1.5394,1.5393,1.545,1.5452,1.5454,0,0,0,0,0,1.6293,1.6255,1.6233,1.6209,1.6067,1.598,1.5961,1.5895,1.5888,1.5865,1.58,1.5762,1.5594,1.5607,1.5583,1.5564,1.5396,1.5395,1.5393,1.5449,1.5452,1.5454,0,0,0,0,0,0,1.6356,1.6239,1.6214,1.614,1.6071,1.5966,1.5935,1.59,1.5829,1.5827,1.5746,1.5723,1.5653,1.56,1.5617,1.5505,1.5491,1.5485,1.5541,1.5543,1.5546,1.5559,1.5569,0,0,0,0,0,1.6363,1.6304,1.6204,1.6148,1.6115,1.6032,1.5991,1.5947,1.5871,1.5841,1.577,1.5696,1.5627,1.5582,1.5512,1.5443,1.5418,1.5418,1.542,1.5423,1.5418,1.5379,1.5378,1.5389,1.5389,1.5389,0,0,1.6373,1.6302,1.6269,1.6159,1.61,1.604,1.6007,1.5944,1.5898,1.583,1.5753,1.57,1.5612,1.5539,1.5503,1.5493,1.541,1.5421,1.5424,1.5417,1.5378,1.5377,1.5376,1.5388,1.5388,1.5388,0,0,1.6361,1.6302,1.625,1.6193,1.6106,1.6052,1.604,1.5941,1.5903,1.5826,1.5775,1.5719,1.56,1.5541,1.5495,1.5466,1.5429,1.5445,1.5456,1.5419,1.5418,1.5417,1.5407,1.5405,1.5441,1.5441,1.5441,0,1.6384,1.6293,1.6227,1.6168,1.6122,1.6062,1.6009,1.5956,1.585,1.5819,1.581,1.5663,1.5599,1.5512,1.5506,1.5471,1.5454,1.5456,1.5424,1.5422,1.542,1.541,1.5407,1.5444,1.5444,1.5443,1.5443,0,1.6326,1.6264,1.6233,1.6136,1.6086,1.603,1.5955,1.5913,1.5874,1.5821,1.5743,1.5666,1.5581,1.5557,1.5517,1.5465,1.5462,1.544,1.5424,1.5423,1.5412,1.5408,1.5448,1.5447,1.5446,1.5445,0,0,1.6345,1.6217,1.6206,1.6163,1.6064,1.6014,1.5956,1.5875,1.5841,1.577,1.572,1.5623,1.5603,1.5552,1.5505,1.5473,1.5456,1.5454,1.5451,1.5458,1.5395,1.5412,1.5409,1.5432,1.5431,1.543,1.5403,0,1.632,1.6216,1.6158,1.6077,1.6019,1.5963,1.5913,1.5847,1.5796,1.5739,1.5682,1.5615,1.5594,1.5563,1.5528,1.5466,1.5442,1.5467,1.5383,1.5381,1.5406,1.5403,1.5419,1.5397,1.5398,1.5397,1.5397,0,1.6276,1.6211,1.6126,1.6037,1.6011,1.5967,1.589,1.5836,1.576,1.5726,1.5671,1.5625,1.5562,1.5553,1.5465,1.5483,1.5445,1.541,1.5407,1.5396,1.5388,1.5391,1.5388,1.5385,1.5389,1.539,1.539,0,1.6299,1.619,1.6126,1.609,1.5985,1.5956,1.591,1.5835,1.5792,1.5724,1.5695,1.562,1.5579,1.5522,1.5457,1.5457,1.5376,1.5361,1.5344,1.5346,1.5328,1.533,1.5319,1.5306,1.5306,1.5306,1.5306,0,1.6277,1.6227,1.6136,1.6096,1.6039,1.5972,1.5917,1.5867,1.5802,1.5751,1.5697,1.565,1.5568,1.5511,1.546,1.5396,1.5377,1.5347,1.5334,1.5351,1.5355,1.5325,1.5324,1.5305,1.5305,1.5305,1.5305,0,1.6292,1.6229,1.6156,1.6064,1.604,1.6002,1.5923,1.5882,1.583,1.5767,1.5748,1.5666,1.5596,1.5527,1.5432,1.5398,1.5335,1.5317,1.5361,1.5353,1.5341,1.5343,1.5309,1.5302,1.5294,1.5295,1.5295,0,1.6281,1.6243,1.6149,1.6113,1.6069,1.6011,1.5967,1.5901,1.5858,1.5771,1.5741,1.5668,1.5606,1.5498,1.5429,1.5357,1.5337,1.533,1.5325,1.5345,1.5337,1.534,1.5336,1.5332,1.5332,1.5332,1.5333,0,1.627,1.6242,1.6182,1.6114,1.6064,1.6006,1.5945,1.5918,1.584,1.5794,1.5724,1.5676,1.5582,1.551,1.5431,1.5383,1.5345,1.5336,1.5328,1.5345,1.5372,1.5358,1.5367,1.5336,1.5336,1.5335,1.5335,1.5335,1.6271,1.6235,1.6165,1.6101,1.605,1.5996,1.5954,1.5899,1.584,1.576,1.5725,1.5654,1.5582,1.5472,1.5425,1.5368,1.5358,1.5347,1.5344,1.5342,1.5347,1.5383,1.5353,1.5353,1.5353,1.5353,1.5353,0,1.6257,1.621,1.6153,1.6072,1.6023,1.5995,1.5928,1.5887,1.5827,1.5764,1.5706,1.5627,1.5558,1.5486,1.5413,1.5382,1.5363,1.5365,1.5366,1.5355,1.5359,1.5373,1.5382,1.5382,1.5382,1.5382,1.5382,1.5382,1.6243,1.6182,1.6146,1.6059,1.6012,1.5945,1.5909,1.5859,1.5808,1.5723,1.5667,1.5622,1.5555,1.5478,1.5414,1.5394,1.5369,1.5377,1.5352,1.5357,1.5355,1.5353,1.5366,1.5372,1.5372,1.5353,1.5353,1.5352]}]]